EHI
27 51 78 88 85 76 58 38 24 17 15 12 7 4 3 3 4 6 5 4 4 4 2 1 0 0 0 0 0 1 4 7 7 5 3 1 0 0 0 0 0 0 0
42 58 80 89 87 78 62 43 28 18 14 11 6 2 2 2 3 4 4 3 3 3 1 0 0 0 0 0 0 1 2 4 5 4 3 1 0 0 0 0 0 0 0
65 67 77 88 91 82 67 50 34 20 13 8 4 1 1 1 1 2 3 3 3 2 1 0 0 0 0 0 0 0 1 1 2 2 2 1 0 1 1 1 0 0 0
73 68 71 85 92 86 72 57 42 27 15 7 2 0 0 0 0 1 2 2 2 1 1 0 0 0 0 0 0 0 0 0 1 1 1 0 0 1 1 1 0 0 0
63 60 67 83 92 87 77 65 52 37 23 11 4 2 1 0 0 0 1 1 1 0 1 1 1 0 0 0 0 0 0 0 0 0 0 0 0 0 1 1 0 0 0
56 56 68 84 91 88 81 71 59 46 31 17 9 6 3 1 1 0 0 0 0 0 1 2 1 0 0 0 0 0 0 0 0 0 0 0 1 3 5 5 2 1 0
59 59 68 82 89 88 82 73 61 49 36 24 17 12 6 3 2 1 0 1 1 1 0 1 1 0 0 0 0 0 0 0 0 0 0 0 2 9 14 12 7 3 1
62 60 63 75 84 85 80 72 62 51 39 32 26 18 10 6 3 2 2 2 3 3 2 1 1 0 0 0 0 0 0 0 0 0 0 0 3 13 21 18 10 5 1
52 52 53 59 67 71 71 69 63 53 42 36 32 24 15 9 5 5 6 6 6 6 6 5 3 1 0 0 0 0 0 0 0 0 0 0 5 16 25 23 15 7 2
35 38 40 42 45 48 52 55 55 48 40 34 31 26 17 10 6 6 8 7 8 10 12 9 6 3 1 0 0 0 0 0 0 0 0 0 6 19 29 30 22 11 5
29 28 29 31 33 34 35 35 35 32 29 26 25 22 17 9 4 4 5 6 9 14 16 14 11 8 4 1 0 0 0 0 0 0 0 1 8 19 30 32 27 17 9
34 29 25 26 29 30 29 26 22 19 18 19 17 15 13 9 3 2 3 6 11 17 19 19 18 15 11 6 2 1 0 0 0 0 1 3 10 20 30 33 29 21 15
39 34 29 28 29 28 28 28 22 16 17 17 14 12 11 8 4 2 4 9 15 21 25 25 26 25 20 13 6 3 1 0 0 1 2 4 11 23 35 38 33 26 21
43 41 38 38 34 28 28 31 27 22 22 20 16 14 13 11 8 6 7 11 19 28 31 30 29 28 23 17 10 4 1 1 1 2 1 3 11 25 38 42 38 32 28
52 50 48 46 42 35 34 36 34 31 29 26 22 18 16 13 10 7 7 10 18 28 31 28 25 22 19 15 10 5 2 2 2 2 1 2 8 20 33 39 37 34 33
57 55 52 50 50 47 45 44 41 37 34 33 30 25 19 14 11 8 8 10 16 23 26 23 20 18 15 12 8 6 5 4 3 1 0 1 5 14 26 35 33 30 29
51 52 53 55 55 54 51 47 40 33 31 31 29 24 18 14 11 9 8 9 14 19 21 21 19 18 16 11 7 7 7 6 4 2 1 1 3 8 17 26 26 22 20
39 45 50 52 49 45 42 37 30 23 20 18 18 15 13 11 9 7 5 5 9 13 15 16 16 16 14 9 6 5 5 5 3 2 1 1 1 3 8 14 15 13 13
32 35 39 37 32 25 23 20 16 13 10 9 8 8 7 7 6 4 2 2 3 5 6 8 9 9 8 6 4 3 3 3 2 1 1 0 0 0 2 4 7 8 7
26 26 25 22 15 10 9 8 7 7 7 6 6 5 5 4 4 3 3 2 1 1 1 3 4 4 4 3 3 3 3 3 2 1 0 0 0 0 0 1 4 5 5
18 17 15 11 6 4 4 3 3 4 5 5 5 3 2 1 1 2 2 1 0 0 0 1 3 3 3 3 3 3 3 3 3 1 0 0 0 0 0 0 1 3 3
9 9 8 5 3 3 3 3 3 3 3 3 3 1 0 0 0 1 1 0 0 0 0 1 2 3 2 1 1 2 3 3 2 1 0 0 0 0 0 0 1 2 2
3 3 3 2 1 2 2 2 2 2 1 1 1 0 0 0 0 0 0 0 0 0 0 0 1 2 1 0 0 1 2 2 1 1 0 0 0 0 0 1 1 1 1
1 1 1 0 0 1 1 1 1 1 0 0 0 0 0 0 0 0 0 0 0 0 0 0 0 0 0 0 0 0 1 1 0 0 0 0 0 0 0 0 0 0 0
0 0 1 1 0 0 0 0 0 0 0 0 0 0 0 0 0 0 0 0 0 0 0 0 0 0 0 0 0 0 0 0 0 0 0 0 0 0 0 0 0 0 0
0 1 2 2 1 0 0 0 0 0 0 0 0 0 0 0 0 0 0 0 0 0 0 0 0 0 0 0 0 0 0 0 0 0 0 0 0 0 0 0 0 0 0
Wind_Speed
10 12 18 19 19 19 18 18 17 17 17 17 16 16 16 16 16 16 15 15 14 14 13 13 13 13 13 14 14 15 15 16 16 16 16 15 14 14 15 16 15 11 16
15 14 19 19 20 19 18 18 17 17 16 16 16 16 16 15 15 15 14 14 14 13 13 12 12 12 13 13 14 14 14 15 15 16 15 13 13 13 14 15 14 10 16
18 14 16 19 19 19 18 18 17 17 16 16 15 15 15 15 14 14 13 13 13 13 12 12 12 12 12 12 12 12 13 13 14 15 13 7 8 13 15 15 15 15 15
18 12 14 20 20 19 18 18 17 17 16 16 15 15 14 14 14 13 13 13 13 13 12 12 12 11 11 11 11 11 11 11 12 12 6 5 7 14 15 15 14 14 14
14 11 14 21 20 19 18 17 17 17 16 16 15 14 14 13 13 13 12 12 12 12 12 12 11 11 10 10 9 9 8 8 9 7 4 4 5 13 15 15 14 14 14
12 10 14 20 19 19 18 17 17 16 16 16 15 14 14 13 13 13 12 12 12 12 12 11 11 11 10 9 8 7 7 6 5 2 4 6 6 12 15 15 14 14 13
12 9 12 19 19 19 18 17 16 16 16 15 15 14 14 13 13 13 12 12 12 12 12 11 11 11 10 9 8 7 6 5 3 2 5 6 7 13 15 15 14 14 13
14 10 10 18 18 18 17 17 16 15 15 15 15 14 14 13 13 13 13 12 12 12 12 12 11 11 10 9 8 7 6 5 3 3 5 6 11 15 16 15 14 14 14
12 9 7 9 12 16 16 16 15 14 14 14 14 14 14 13 13 13 13 13 13 13 12 12 12 12 11 11 10 9 8 7 2 2 5 5 13 17 17 17 16 15 14
10 8 7 6 6 6 9 14 15 15 14 14 14 14 14 14 13 13 12 13 14 14 14 14 14 14 13 12 11 10 10 7 3 3 3 6 14 18 18 18 17 16 15
9 6 7 6 6 5 5 10 11 13 13 13 11 14 12 6 6 7 11 14 15 15 15 15 15 15 14 13 13 13 10 3 3 3 4 9 16 18 19 19 18 17 17
10 8 7 7 7 6 7 5 4 5 6 6 5 6 5 4 5 8 9 16 16 16 17 17 16 14 11 6 9 12 4 5 4 4 5 11 16 19 19 19 19 18 18
10 10 8 7 7 7 5 5 3 3 3 4 5 5 4 4 4 5 3 7 10 13 9 10 10 7 6 5 4 5 5 5 4 4 5 11 16 20 20 20 20 20 19
8 7 7 6 5 6 4 4 4 3 3 4 5 6 4 3 4 4 3 4 5 4 6 6 5 7 7 8 8 8 8 6 5 4 5 11 14 18 20 20 20 20 20
7 6 6 6 5 4 3 3 3 3 3 4 4 5 5 4 4 4 3 3 4 4 5 5 6 7 8 8 9 10 9 9 8 6 5 11 14 18 20 20 20 20 20
5 4 4 5 4 4 3 2 1 1 2 2 2 3 3 2 2 2 2 2 3 3 4 5 7 7 7 7 8 9 9 9 9 8 7 8 14 17 19 20 21 20 21
3 4 4 4 3 3 3 2 2 1 2 1 1 1 2 2 2 2 2 2 2 3 4 4 6 5 6 6 8 8 7 8 8 9 8 6 7 14 18 20 20 20 21
4 5 4 5 5 4 4 2 1 2 2 2 2 2 2 1 1 1 1 2 2 2 3 3 4 4 5 5 5 6 6 6 9 8 7 7 6 7 12 19 20 19 20
4 5 5 5 5 4 3 2 2 2 2 2 1 1 1 0 0 1 2 2 2 2 2 4 3 4 4 5 5 5 5 5 6 8 8 9 8 7 7 12 19 20 20
5 4 5 5 4 3 2 3 3 3 3 2 1 0 0 0 1 1 1 2 1 1 2 3 3 3 4 4 5 5 4 5 5 6 8 8 8 9 9 9 9 13 18
4 4 4 4 2 2 2 2 2 2 2 2 1 1 1 1 1 1 1 1 1 1 3 3 2 3 3 2 2 2 3 5 6 6 6 6 8 9 9 9 7 6 7
3 3 3 3 2 2 1 1 1 0 0 1 1 2 2 2 2 2 1 2 2 2 2 3 2 2 2 2 2 1 2 3 4 7 6 7 8 6 8 11 9 8 7
3 3 3 3 2 2 1 1 2 2 2 2 2 2 3 3 3 2 2 2 2 1 2 3 2 2 2 2 3 3 3 3 2 2 5 6 6 6 6 7 9 9 9
4 3 3 3 2 2 2 2 2 1 1 2 2 2 3 3 3 2 2 2 2 1 2 2 2 2 1 1 1 2 3 2 2 2 2 2 5 6 6 7 8 8 9
3 3 3 2 2 2 2 2 2 1 2 2 2 3 3 3 4 3 2 2 2 2 3 2 2 2 2 2 1 1 1 2 2 2 2 2 2 3 5 5 5 6 8
2 2 2 2 1 1 1 1 2 3 3 3 3 3 3 3 3 4 3 3 3 2 3 3 3 3 2 2 2 1 1 1 2 2 3 2 3 3 3 4 5 6 6
Wind_Direction
152 158 152 144 140 138 135 132 128 125 123 120 119 117 116 115 115 116 118 120 121 121 120 118 116 113 112 113 114 115 115 117 118 118 116 114 116 119 117 114 112 110 112
149 155 151 146 143 141 140 137 134 132 129 128 126 125 124 123 122 122 123 125 124 124 123 122 121 119 118 119 119 119 120 121 121 118 114 112 115 122 121 116 116 119 119
143 150 150 147 145 144 143 142 140 138 137 136 135 134 133 131 131 130 130 131 130 129 128 128 126 126 125 124 124 124 125 125 124 121 114 109 112 121 125 121 121 121 121
143 146 150 148 146 146 146 146 145 144 144 143 142 142 142 141 141 140 139 139 137 137 136 135 134 133 133 132 131 130 131 133 134 130 122 123 120 124 127 127 127 126 125
140 143 152 149 148 149 149 149 150 150 149 149 150 150 150 150 150 150 149 148 147 146 145 144 143 143 143 143 141 140 139 140 145 141 142 136 128 135 134 134 134 133 132
138 142 153 150 149 150 152 153 154 154 155 155 156 157 158 159 159 158 159 159 158 157 156 155 154 155 156 158 158 156 155 158 155 141 150 150 149 148 144 143 142 140 139
138 143 152 151 152 153 155 156 158 159 161 162 163 164 165 167 169 170 169 169 168 167 167 167 166 166 169 173 177 177 179 181 167 163 161 161 165 158 153 151 149 148 147
142 144 150 154 154 155 156 159 161 164 165 167 168 170 172 175 178 178 178 179 178 178 177 177 178 179 182 186 193 199 203 208 177 162 171 174 176 166 161 158 156 156 156
140 143 144 152 156 158 159 162 165 167 169 170 172 176 179 183 185 187 188 189 188 188 188 188 190 190 193 197 205 214 220 222 190 169 182 180 183 173 169 166 165 165 164
138 146 145 145 148 155 163 168 171 173 175 178 181 184 188 190 192 196 195 198 198 198 198 198 199 198 200 203 210 220 228 234 216 195 189 193 192 182 176 173 172 173 172
137 149 152 153 151 153 163 178 177 180 184 186 189 193 194 197 198 202 205 206 207 207 206 206 207 206 206 209 213 220 228 221 213 209 202 206 199 192 184 180 179 179 179
151 160 164 164 163 165 180 174 182 190 189 189 191 197 192 191 206 212 219 218 217 215 214 214 213 212 211 210 218 220 220 215 220 222 215 212 202 199 191 186 184 184 184
157 160 165 169 171 178 187 168 186 198 192 198 201 202 198 200 213 222 217 229 227 223 217 218 216 212 210 203 208 216 217 218 220 223 220 216 206 203 197 192 190 189 189
147 152 151 161 162 182 182 174 186 198 196 201 208 205 201 208 215 219 218 217 218 216 209 210 210 210 211 209 209 216 220 219 216 215 224 222 209 203 200 198 196 195 193
135 154 159 154 160 171 168 172 178 193 195 201 200 207 203 207 215 217 218 214 217 215 210 211 215 217 216 215 216 217 219 219 217 216 222 223 214 207 203 200 202 203 200
127 138 145 145 150 145 145 144 150 151 143 162 171 187 188 205 222 223 225 224 221 222 221 217 220 219 222 218 220 221 220 215 215 215 218 225 220 211 207 206 208 209 208
92 103 116 124 99 108 104 101 93 77 89 90 94 106 138 164 209 218 239 242 235 228 228 226 228 223 225 223 223 224 222 214 210 213 215 217 219 215 211 212 214 213 213
75 75 73 90 76 65 65 46 51 63 76 70 67 82 107 134 183 222 248 252 252 245 236 237 231 227 226 224 223 226 223 217 213 210 210 211 210 213 215 218 218 216 217
86 84 78 74 77 71 61 51 48 51 52 52 59 65 68 50 281 215 249 254 256 262 258 256 246 235 231 227 226 227 224 222 218 215 212 210 208 208 207 220 221 219 219
88 88 84 78 71 69 58 48 33 32 30 35 42 40 24 324 305 248 255 275 267 276 274 262 255 249 233 227 238 239 231 228 219 215 216 212 210 209 209 216 219 222 219
86 85 88 91 79 71 57 51 39 14 0 6 358 323 305 304 296 279 273 290 283 265 268 265 253 259 249 218 218 267 264 236 227 223 216 210 212 209 205 211 212 210 215
128 125 125 124 113 103 107 118 136 151 305 313 335 340 318 306 296 289 260 247 246 258 273 273 255 250 251 206 186 201 265 280 248 230 216 212 211 204 207 211 210 206 205
172 174 161 161 147 140 123 84 51 31 5 355 338 319 302 290 286 286 263 247 245 234 252 247 228 222 241 246 199 185 191 226 265 257 222 214 202 198 206 207 207 207 206
191 178 163 164 167 165 139 117 125 140 238 258 263 277 295 294 292 278 262 251 251 239 240 246 213 205 213 265 251 216 211 191 200 290 291 235 209 207 209 211 208 207 205
176 156 161 166 192 199 168 158 156 201 231 261 281 297 301 299 294 286 263 251 248 239 234 237 244 226 209 219 226 219 248 239 202 201 260 273 252 229 215 209 205 207 205
124 132 151 158 224 243 216 207 200 224 247 271 284 290 291 290 291 294 269 247 244 241 235 231 229 234 231 224 230 216 201 224 216 204 226 235 237 244 228 214 208 206 203